QPF
0.03 0.03 0.03 0.02 0.02 0.02 0.01 0.01 0.02 0.03 0.03 0.03 0.04 0.04 0.04 0.04 0.03 0.03 0.02 0.03 0.03 0.03 0.03 0.03 0.03 0.02 0.02 0.02 0.02 0.02 0.02 0.02 0.02 0.01 0.00 0.00 0.00 0.00 0.00 0.01 0.01 0.01 0.01
0.04 0.05 0.05 0.04 0.03 0.02 0.02 0.01 0.01 0.02 0.02 0.03 0.03 0.03 0.03 0.04 0.04 0.03 0.03 0.03 0.03 0.03 0.03 0.03 0.03 0.02 0.03 0.02 0.02 0.02 0.01 0.01 0.01 0.01 0.01 0.00 0.00 0.00 0.00 0.00 0.01 0.02 0.03
0.04 0.04 0.04 0.04 0.04 0.04 0.03 0.02 0.01 0.01 0.02 0.02 0.02 0.03 0.03 0.03 0.03 0.04 0.05 0.06 0.06 0.05 0.04 0.04 0.04 0.03 0.02 0.01 0.01 0.01 0.02 0.02 0.02 0.01 0.01 0.01 0.01 0.01 0.01 0.01 0.01 0.01 0.03
0.03 0.03 0.03 0.03 0.03 0.03 0.02 0.01 0.01 0.02 0.02 0.02 0.02 0.02 0.03 0.03 0.03 0.04 0.04 0.05 0.05 0.05 0.05 0.04 0.04 0.03 0.02 0.01 0.01 0.01 0.02 0.02 0.02 0.02 0.02 0.02 0.02 0.02 0.02 0.02 0.01 0.01 0.02
0.03 0.03 0.02 0.02 0.02 0.02 0.02 0.02 0.02 0.02 0.03 0.02 0.01 0.02 0.03 0.03 0.03 0.03 0.04 0.03 0.03 0.04 0.04 0.04 0.03 0.03 0.02 0.02 0.02 0.02 0.02 0.02 0.02 0.03 0.02 0.02 0.01 0.01 0.02 0.02 0.02 0.02 0.02
0.02 0.02 0.02 0.01 0.01 0.02 0.02 0.02 0.02 0.02 0.03 0.03 0.03 0.03 0.03 0.03 0.04 0.04 0.04 0.03 0.03 0.03 0.03 0.02 0.02 0.02 0.02 0.02 0.02 0.02 0.03 0.03 0.03 0.03 0.02 0.02 0.01 0.01 0.01 0.02 0.02 0.03 0.03
0.01 0.01 0.01 0.01 0.01 0.01 0.02 0.02 0.02 0.02 0.03 0.03 0.04 0.05 0.04 0.04 0.05 0.04 0.04 0.04 0.03 0.02 0.02 0.02 0.02 0.02 0.02 0.02 0.02 0.02 0.02 0.02 0.03 0.03 0.03 0.03 0.02 0.02 0.01 0.02 0.02 0.03 0.03
0.01 0.01 0.01 0.01 0.02 0.02 0.02 0.01 0.02 0.02 0.03 0.03 0.03 0.04 0.04 0.04 0.03 0.03 0.03 0.03 0.02 0.02 0.02 0.02 0.01 0.01 0.01 0.01 0.01 0.01 0.01 0.01 0.01 0.01 0.01 0.01 0.01 0.01 0.02 0.02 0.03 0.04 0.04
0.01 0.01 0.02 0.02 0.02 0.02 0.01 0.01 0.01 0.02 0.02 0.02 0.02 0.02 0.03 0.03 0.02 0.02 0.02 0.02 0.01 0.01 0.01 0.00 0.00 0.00 0.00 0.01 0.00 0.00 0.00 0.00 0.00 0.01 0.01 0.01 0.01 0.02 0.02 0.03 0.04 0.05 0.07
0.01 0.01 0.01 0.02 0.02 0.02 0.01 0.01 0.01 0.01 0.01 0.01 0.01 0.01 0.02 0.02 0.02 0.01 0.01 0.01 0.01 0.01 0.00 0.00 0.00 0.01 0.01 0.01 0.00 0.00 0.00 0.00 0.00 0.00 0.01 0.01 0.01 0.02 0.02 0.03 0.03 0.04 0.05
0.00 0.01 0.01 0.01 0.01 0.01 0.01 0.01 0.01 0.01 0.01 0.01 0.01 0.00 0.01 0.01 0.01 0.01 0.01 0.01 0.01 0.01 0.01 0.00 0.00 0.01 0.01 0.01 0.01 0.01 0.01 0.01 0.00 0.01 0.01 0.01 0.01 0.01 0.02 0.02 0.03 0.04 0.05
0.00 0.00 0.00 0.01 0.01 0.01 0.01 0.01 0.01 0.01 0.01 0.01 0.00 0.00 0.00 0.00 0.01 0.01 0.01 0.01 0.01 0.01 0.01 0.01 0.01 0.01 0.01 0.01 0.01 0.01 0.01 0.01 0.01 0.01 0.01 0.01 0.01 0.01 0.01 0.02 0.02 0.03 0.03
0.01 0.00 0.00 0.00 0.01 0.01 0.01 0.01 0.01 0.01 0.01 0.00 0.00 0.00 0.00 0.00 0.00 0.01 0.01 0.01 0.01 0.01 0.01 0.01 0.01 0.01 0.01 0.01 0.01 0.01 0.02 0.01 0.01 0.01 0.01 0.02 0.02 0.02 0.01 0.02 0.02 0.03 0.03
0.01 0.00 0.00 0.00 0.00 0.01 0.00 0.00 0.00 0.01 0.00 0.00 0.00 0.00 0.00 0.00 0.00 0.00 0.00 0.01 0.01 0.00 0.00 0.00 0.01 0.01 0.01 0.01 0.01 0.02 0.02 0.01 0.01 0.02 0.02 0.01 0.01 0.02 0.03 0.03 0.03 0.03 0.04
0.00 0.01 0.00 0.00 0.00 0.00 0.00 0.00 0.00 0.00 0.00 0.00 0.00 0.00 0.00 0.00 0.00 0.01 0.00 0.00 0.01 0.01 0.00 0.00 0.00 0.00 0.01 0.01 0.01 0.01 0.01 0.01 0.01 0.01 0.01 0.01 0.01 0.01 0.02 0.03 0.04 0.04 0.05
0.00 0.00 0.00 0.00 0.00 0.00 0.00 0.00 0.00 0.00 0.00 0.00 0.00 0.00 0.00 0.00 0.00 0.00 0.01 0.01 0.01 0.01 0.01 0.00 0.00 0.01 0.01 0.01 0.01 0.01 0.01 0.01 0.01 0.01 0.01 0.01 0.01 0.01 0.01 0.02 0.03 0.04 0.05
0.00 0.00 0.00 0.00 0.00 0.00 0.00 0.01 0.00 0.00 0.00 0.00 0.00 0.00 0.00 0.01 0.00 0.00 0.00 0.01 0.01 0.01 0.01 0.01 0.01 0.01 0.01 0.01 0.01 0.01 0.01 0.01 0.01 0.01 0.01 0.01 0.01 0.01 0.01 0.01 0.02 0.02 0.03
0.00 0.00 0.00 0.00 0.00 0.00 0.00 0.01 0.01 0.01 0.00 0.00 0.00 0.00 0.00 0.00 0.00 0.00 0.00 0.01 0.01 0.01 0.01 0.01 0.01 0.01 0.01 0.01 0.02 0.02 0.01 0.01 0.01 0.01 0.01 0.01 0.01 0.01 0.01 0.01 0.02 0.02 0.02
0.01 0.00 0.00 0.00 0.00 0.00 0.00 0.00 0.01 0.01 0.01 0.01 0.00 0.00 0.01 0.00 0.00 0.00 0.00 0.00 0.00 0.01 0.01 0.01 0.01 0.01 0.01 0.01 0.01 0.02 0.02 0.02 0.02 0.01 0.01 0.01 0.01 0.01 0.01 0.01 0.02 0.02 0.02
0.01 0.01 0.01 0.00 0.00 0.00 0.00 0.01 0.01 0.01 0.01 0.01 0.01 0.00 0.01 0.00 0.00 0.00 0.00 0.00 0.00 0.00 0.00 0.00 0.01 0.01 0.01 0.01 0.01 0.01 0.01 0.02 0.02 0.02 0.02 0.02 0.02 0.02 0.02 0.02 0.02 0.02 0.02
0.01 0.01 0.01 0.01 0.01 0.01 0.01 0.01 0.01 0.01 0.01 0.01 0.01 0.00 0.00 0.00 0.00 0.00 0.00 0.00 0.00 0.00 0.00 0.00 0.00 0.01 0.01 0.01 0.01 0.02 0.01 0.01 0.01 0.02 0.03 0.03 0.03 0.03 0.03 0.03 0.02 0.02 0.02
0.01 0.01 0.01 0.01 0.01 0.01 0.01 0.01 0.01 0.01 0.01 0.01 0.01 0.01 0.01 0.00 0.00 0.00 0.00 0.00 0.00 0.00 0.00 0.00 0.00 0.01 0.01 0.01 0.02 0.02 0.02 0.02 0.02 0.02 0.02 0.03 0.03 0.03 0.04 0.04 0.03 0.03 0.03
0.01 0.01 0.01 0.01 0.01 0.01 0.01 0.02 0.02 0.01 0.01 0.01 0.01 0.01 0.01 0.01 0.00 0.00 0.00 0.00 0.00 0.00 0.00 0.00 0.01 0.01 0.01 0.01 0.02 0.02 0.02 0.02 0.02 0.02 0.02 0.02 0.02 0.03 0.03 0.04 0.04 0.04 0.04
0.01 0.01 0.01 0.01 0.01 0.01 0.01 0.01 0.01 0.01 0.01 0.01 0.01 0.01 0.01 0.01 0.00 0.00 0.00 0.00 0.00 0.00 0.00 0.00 0.01 0.01 0.01 0.01 0.01 0.01 0.02 0.02 0.02 0.02 0.03 0.03 0.03 0.03 0.03 0.03 0.04 0.04 0.04
0.00 0.00 0.00 0.00 0.01 0.01 0.01 0.01 0.01 0.01 0.01 0.01 0.01 0.01 0.01 0.01 0.01 0.01 0.01 0.01 0.01 0.01 0.01 0.01 0.01 0.01 0.01 0.01 0.01 0.01 0.02 0.02 0.02 0.02 0.03 0.03 0.03 0.03 0.03 0.04 0.03 0.03 0.04
0.00 0.00 0.01 0.01 0.01 0.01 0.01 0.01 0.01 0.01 0.01 0.01 0.01 0.01 0.01 0.01 0.01 0.01 0.01 0.01 0.01 0.01 0.01 0.01 0.01 0.01 0.01 0.01 0.01 0.01 0.01 0.02 0.02 0.02 0.02 0.03 0.03 0.03 0.03 0.03 0.04 0.04 0.04
MSLP
1017.52 1017.67 1017.84 1017.98 1018.07 1018.10 1018.06 1017.97 1017.85 1017.73 1017.61 1017.51 1017.41 1017.30 1017.17 1017.02 1016.84 1016.65 1016.45 1016.28 1016.13 1016.02 1015.94 1015.87 1015.78 1015.65 1015.46 1015.20 1014.88 1014.50 1014.10 1013.71 1013.34 1013.03 1012.76 1012.53 1012.33 1012.11 1011.88 1011.60 1011.28 1010.92 1010.54
1017.04 1017.23 1017.45 1017.65 1017.80 1017.89 1017.92 1017.90 1017.83 1017.75 1017.65 1017.54 1017.42 1017.28 1017.13 1016.95 1016.75 1016.54 1016.35 1016.17 1016.04 1015.94 1015.87 1015.81 1015.73 1015.62 1015.45 1015.21 1014.92 1014.57 1014.21 1013.84 1013.49 1013.17 1012.88 1012.61 1012.34 1012.05 1011.74 1011.38 1010.98 1010.55 1010.10
1016.53 1016.77 1017.04 1017.28 1017.49 1017.64 1017.72 1017.75 1017.73 1017.68 1017.60 1017.49 1017.37 1017.22 1017.05 1016.85 1016.63 1016.41 1016.21 1016.03 1015.89 1015.79 1015.71 1015.64 1015.57 1015.45 1015.29 1015.07 1014.80 1014.48 1014.14 1013.79 1013.45 1013.12 1012.80 1012.49 1012.17 1011.83 1011.44 1011.02 1010.57 1010.09 1009.61
1016.02 1016.32 1016.62 1016.90 1017.14 1017.32 1017.44 1017.51 1017.53 1017.51 1017.46 1017.37 1017.26 1017.11 1016.94 1016.73 1016.51 1016.29 1016.07 1015.88 1015.73 1015.61 1015.51 1015.42 1015.32 1015.19 1015.02 1014.80 1014.53 1014.21 1013.88 1013.53 1013.19 1012.85 1012.51 1012.16 1011.80 1011.41 1010.99 1010.54 1010.06 1009.57 1009.08
1015.53 1015.86 1016.19 1016.49 1016.74 1016.94 1017.08 1017.17 1017.22 1017.24 1017.22 1017.17 1017.08 1016.96 1016.80 1016.60 1016.38 1016.16 1015.93 1015.73 1015.56 1015.41 1015.28 1015.16 1015.02 1014.86 1014.66 1014.42 1014.13 1013.80 1013.45 1013.09 1012.73 1012.37 1012.00 1011.63 1011.25 1010.84 1010.41 1009.95 1009.48 1009.00 1008.53
1015.06 1015.41 1015.74 1016.04 1016.29 1016.48 1016.63 1016.74 1016.82 1016.87 1016.89 1016.89 1016.84 1016.75 1016.62 1016.45 1016.24 1016.02 1015.79 1015.57 1015.37 1015.19 1015.03 1014.86 1014.68 1014.48 1014.23 1013.95 1013.62 1013.26 1012.88 1012.49 1012.10 1011.72 1011.33 1010.95 1010.55 1010.14 1009.72 1009.29 1008.84 1008.40 1007.96
1014.57 1014.93 1015.25 1015.53 1015.75 1015.93 1016.08 1016.21 1016.31 1016.41 1016.48 1016.53 1016.53 1016.49 1016.40 1016.25 1016.07 1015.85 1015.61 1015.38 1015.15 1014.93 1014.73 1014.51 1014.29 1014.03 1013.74 1013.41 1013.04 1012.64 1012.22 1011.80 1011.37 1010.96 1010.56 1010.16 1009.77 1009.37 1008.97 1008.57 1008.17 1007.76 1007.36
1014.05 1014.39 1014.68 1014.92 1015.12 1015.29 1015.44 1015.58 1015.73 1015.87 1016.00 1016.11 1016.17 1016.18 1016.12 1016.00 1015.83 1015.61 1015.36 1015.11 1014.85 1014.61 1014.36 1014.10 1013.83 1013.53 1013.19 1012.81 1012.40 1011.96 1011.51 1011.05 1010.60 1010.16 1009.74 1009.34 1008.95 1008.57 1008.19 1007.82 1007.45 1007.08 1006.70
1013.45 1013.75 1014.01 1014.22 1014.39 1014.55 1014.72 1014.89 1015.08 1015.28 1015.48 1015.64 1015.76 1015.81 1015.78 1015.68 1015.51 1015.28 1015.02 1014.74 1014.46 1014.18 1013.90 1013.62 1013.31 1012.98 1012.61 1012.20 1011.75 1011.28 1010.79 1010.30 1009.82 1009.36 1008.93 1008.52 1008.13 1007.75 1007.38 1007.02 1006.67 1006.31 1005.94
1012.76 1013.02 1013.24 1013.42 1013.58 1013.75 1013.94 1014.16 1014.41 1014.67 1014.92 1015.14 1015.30 1015.38 1015.37 1015.28 1015.10 1014.86 1014.58 1014.28 1013.98 1013.68 1013.38 1013.07 1012.75 1012.40 1012.02 1011.59 1011.12 1010.62 1010.11 1009.59 1009.09 1008.61 1008.16 1007.73 1007.33 1006.94 1006.56 1006.19 1005.82 1005.44 1005.05
1011.98 1012.20 1012.39 1012.56 1012.73 1012.92 1013.15 1013.43 1013.74 1014.06 1014.37 1014.63 1014.82 1014.92 1014.91 1014.80 1014.61 1014.35 1014.05 1013.73 1013.41 1013.10 1012.80 1012.50 1012.18 1011.84 1011.45 1011.01 1010.54 1010.03 1009.50 1008.96 1008.43 1007.92 1007.44 1006.99 1006.56 1006.14 1005.73 1005.32 1004.90 1004.47 1004.04
1011.15 1011.33 1011.50 1011.67 1011.87 1012.10 1012.39 1012.73 1013.10 1013.48 1013.83 1014.13 1014.33 1014.42 1014.40 1014.28 1014.06 1013.78 1013.46 1013.13 1012.81 1012.51 1012.22 1011.94 1011.64 1011.31 1010.94 1010.51 1010.03 1009.51 1008.97 1008.41 1007.85 1007.31 1006.80 1006.30 1005.83 1005.36 1004.90 1004.42 1003.94 1003.44 1002.93
1010.30 1010.46 1010.63 1010.82 1011.05 1011.34 1011.69 1012.09 1012.52 1012.94 1013.33 1013.64 1013.84 1013.92 1013.88 1013.72 1013.48 1013.18 1012.86 1012.53 1012.23 1011.95 1011.69 1011.44 1011.17 1010.86 1010.51 1010.09 1009.61 1009.09 1008.52 1007.93 1007.35 1006.77 1006.21 1005.67 1005.14 1004.62 1004.09 1003.54 1002.97 1002.39 1001.79
1009.48 1009.64 1009.82 1010.04 1010.32 1010.67 1011.08 1011.54 1012.01 1012.47 1012.86 1013.17 1013.36 1013.41 1013.35 1013.17 1012.91 1012.61 1012.29 1011.99 1011.72 1011.47 1011.25 1011.04 1010.80 1010.52 1010.18 1009.77 1009.28 1008.74 1008.15 1007.53 1006.90 1006.29 1005.68 1005.09 1004.50 1003.92 1003.32 1002.69 1002.05 1001.38 1000.70
1008.72 1008.89 1009.10 1009.37 1009.70 1010.11 1010.57 1011.07 1011.58 1012.05 1012.44 1012.73 1012.89 1012.93 1012.84 1012.65 1012.39 1012.10 1011.81 1011.54 1011.31 1011.12 1010.94 1010.76 1010.55 1010.29 1009.95 1009.53 1009.03 1008.45 1007.83 1007.17 1006.50 1005.84 1005.18 1004.54 1003.90 1003.26 1002.60 1001.91 1001.19 1000.45 999.69
1008.05 1008.24 1008.49 1008.80 1009.19 1009.65 1010.16 1010.69 1011.20 1011.67 1012.05 1012.32 1012.46 1012.47 1012.37 1012.18 1011.95 1011.69 1011.44 1011.22 1011.05 1010.90 1010.76 1010.61 1010.41 1010.15 1009.80 1009.35 1008.81 1008.20 1007.52 1006.81 1006.10 1005.39 1004.69 1004.00 1003.32 1002.63 1001.92 1001.18 1000.40 999.60 998.78
1007.44 1007.67 1007.96 1008.33 1008.77 1009.27 1009.81 1010.35 1010.87 1011.32 1011.68 1011.93 1012.05 1012.05 1011.96 1011.80 1011.60 1011.39 1011.20 1011.04 1010.91 1010.81 1010.70 1010.56 1010.36 1010.08 1009.69 1009.20 1008.60 1007.93 1007.20 1006.44 1005.67 1004.91 1004.16 1003.44 1002.72 1001.99 1001.24 1000.45 999.63 998.78 997.91
1006.89 1007.16 1007.51 1007.92 1008.41 1008.94 1009.50 1010.05 1010.55 1010.99 1011.33 1011.56 1011.67 1011.69 1011.62 1011.50 1011.35 1011.21 1011.08 1010.98 1010.90 1010.83 1010.73 1010.58 1010.36 1010.03 1009.58 1009.02 1008.36 1007.62 1006.83 1006.01 1005.18 1004.37 1003.58 1002.81 1002.05 1001.29 1000.50 999.67 998.81 997.92 997.01
1006.38 1006.69 1007.09 1007.55 1008.08 1008.63 1009.20 1009.75 1010.25 1010.67 1011.00 1011.22 1011.35 1011.39 1011.36 1011.30 1011.22 1011.14 1011.08 1011.03 1010.99 1010.92 1010.82 1010.64 1010.36 1009.97 1009.45 1008.81 1008.07 1007.25 1006.39 1005.50 1004.62 1003.76 1002.92 1002.11 1001.30 1000.48 999.65 998.78 997.87 996.94 995.99
1005.90 1006.27 1006.71 1007.21 1007.77 1008.34 1008.92 1009.46 1009.95 1010.37 1010.69 1010.93 1011.08 1011.16 1011.19 1011.19 1011.18 1011.17 1011.17 1011.16 1011.13 1011.05 1010.92 1010.68 1010.33 1009.86 1009.25 1008.53 1007.71 1006.81 1005.88 1004.93 1003.99 1003.07 1002.18 1001.30 1000.43 999.55 998.65 997.72 996.76 995.77 994.79
1005.48 1005.89 1006.36 1006.90 1007.48 1008.07 1008.65 1009.19 1009.68 1010.09 1010.43 1010.69 1010.88 1011.02 1011.11 1011.18 1011.24 1011.28 1011.32 1011.33 1011.29 1011.19 1011.00 1010.69 1010.26 1009.69 1009.00 1008.18 1007.28 1006.32 1005.32 1004.31 1003.31 1002.33 1001.37 1000.42 999.47 998.51 997.53 996.51 995.48 994.43 993.40
1005.14 1005.57 1006.08 1006.64 1007.23 1007.83 1008.41 1008.96 1009.45 1009.88 1010.24 1010.53 1010.77 1010.96 1011.12 1011.25 1011.36 1011.44 1011.50 1011.51 1011.44 1011.29 1011.03 1010.64 1010.12 1009.46 1008.68 1007.78 1006.81 1005.79 1004.73 1003.67 1002.61 1001.57 1000.54 999.51 998.47 997.41 996.33 995.22 994.09 992.97 991.89
1004.91 1005.37 1005.89 1006.46 1007.06 1007.66 1008.25 1008.80 1009.29 1009.74 1010.12 1010.45 1010.74 1010.98 1011.19 1011.37 1011.52 1011.63 1011.68 1011.67 1011.56 1011.34 1011.00 1010.53 1009.91 1009.17 1008.31 1007.36 1006.33 1005.26 1004.17 1003.06 1001.96 1000.86 999.76 998.64 997.51 996.35 995.16 993.95 992.73 991.54 990.41
1004.81 1005.28 1005.81 1006.39 1006.99 1007.59 1008.17 1008.72 1009.22 1009.68 1010.09 1010.46 1010.78 1011.07 1011.32 1011.53 1011.69 1011.80 1011.83 1011.78 1011.61 1011.32 1010.90 1010.35 1009.66 1008.85 1007.93 1006.93 1005.88 1004.78 1003.66 1002.53 1001.39 1000.25 999.09 997.90 996.68 995.43 994.15 992.85 991.56 990.31 989.14
1004.87 1005.34 1005.86 1006.43 1007.02 1007.61 1008.19 1008.74 1009.25 1009.72 1010.15 1010.53 1010.88 1011.19 1011.46 1011.68 1011.84 1011.93 1011.93 1011.82 1011.59 1011.23 1010.74 1010.12 1009.37 1008.51 1007.57 1006.55 1005.48 1004.38 1003.26 1002.12 1000.97 999.80 998.60 997.36 996.08 994.76 993.41 992.06 990.72 989.44 988.26
1005.06 1005.52 1006.04 1006.60 1007.17 1007.75 1008.31 1008.85 1009.35 1009.82 1010.26 1010.66 1011.02 1011.34 1011.60 1011.81 1011.95 1012.00 1011.96 1011.79 1011.50 1011.08 1010.53 1009.86 1009.08 1008.19 1007.24 1006.22 1005.16 1004.08 1002.98 1001.85 1000.71 999.53 998.32 997.06 995.75 994.41 993.04 991.66 990.32 989.05 987.89
Thickness
5541 5543 5544 5546 5548 5550 5551 5553 5554 5556 5558 5559 5559 5560 5560 5559 5560 5560 5560 5559 5558 5556 5555 5554 5554 5552 5551 5549 5547 5546 5544 5543 5543 5545 5542 5541 5540 5539 5538 5537 5536 5535 5534
5535 5536 5537 5538 5540 5542 5544 5545 5546 5548 5550 5551 5551 5551 5552 5552 5551 5552 5551 5551 5549 5548 5547 5545 5545 5543 5542 5540 5538 5536 5535 5533 5532 5532 5532 5530 5530 5529 5528 5527 5527 5526 5525
5529 5529 5530 5531 5533 5535 5536 5538 5539 5540 5541 5542 5543 5543 5543 5543 5543 5543 5543 5542 5541 5540 5539 5537 5536 5535 5533 5531 5529 5528 5526 5525 5523 5521 5522 5520 5519 5518 5518 5518 5517 5516 5515
5524 5524 5524 5525 5526 5528 5529 5530 5531 5532 5533 5534 5535 5535 5535 5535 5535 5535 5534 5533 5532 5531 5530 5529 5528 5527 5525 5522 5521 5519 5518 5516 5513 5512 5512 5510 5509 5508 5506 5506 5507 5507 5506
5519 5519 5519 5520 5520 5521 5522 5523 5524 5525 5526 5527 5527 5528 5528 5528 5528 5528 5527 5526 5525 5524 5523 5521 5521 5519 5518 5516 5514 5512 5509 5507 5505 5503 5503 5501 5500 5497 5496 5495 5495 5496 5497
5515 5515 5515 5515 5515 5515 5516 5517 5518 5518 5519 5519 5520 5521 5520 5521 5522 5522 5521 5519 5518 5517 5515 5514 5513 5512 5510 5509 5507 5505 5502 5499 5497 5495 5494 5492 5491 5488 5486 5484 5482 5483 5486
5512 5512 5512 5511 5511 5511 5511 5511 5512 5512 5512 5512 5513 5513 5513 5514 5515 5515 5515 5513 5511 5509 5508 5506 5506 5504 5503 5501 5500 5497 5494 5491 5489 5486 5484 5482 5480 5479 5476 5475 5472 5470 5471
5509 5509 5508 5508 5507 5507 5506 5506 5506 5506 5506 5506 5506 5507 5507 5507 5508 5508 5507 5505 5503 5502 5500 5499 5498 5496 5495 5493 5491 5488 5485 5483 5481 5478 5475 5473 5470 5468 5465 5464 5462 5462 5462
5507 5506 5506 5505 5504 5502 5502 5502 5501 5501 5500 5500 5500 5500 5500 5500 5501 5501 5500 5497 5495 5494 5493 5491 5490 5488 5487 5485 5483 5480 5478 5476 5473 5470 5467 5464 5462 5459 5456 5454 5453 5452 5454
5506 5505 5503 5501 5500 5499 5498 5497 5496 5496 5495 5495 5495 5494 5494 5493 5494 5494 5493 5490 5488 5486 5485 5483 5482 5481 5480 5477 5474 5471 5470 5468 5464 5462 5459 5456 5453 5450 5448 5445 5443 5442 5442
5504 5501 5499 5497 5496 5494 5493 5492 5491 5489 5488 5488 5488 5488 5488 5487 5487 5487 5486 5483 5481 5479 5477 5475 5474 5473 5471 5469 5466 5463 5462 5459 5455 5452 5450 5447 5444 5442 5439 5437 5434 5432 5431
5499 5497 5495 5493 5491 5490 5487 5486 5484 5483 5481 5481 5480 5480 5480 5480 5480 5479 5479 5477 5475 5472 5470 5468 5466 5465 5463 5460 5458 5456 5454 5450 5446 5443 5441 5438 5435 5433 5431 5429 5427 5425 5423
5494 5492 5490 5488 5486 5484 5482 5480 5478 5476 5474 5474 5473 5473 5472 5472 5471 5472 5471 5470 5468 5465 5463 5461 5459 5456 5454 5451 5449 5446 5443 5440 5437 5434 5432 5429 5426 5423 5422 5421 5420 5418 5417
5490 5487 5485 5482 5480 5478 5476 5475 5473 5470 5469 5468 5466 5466 5465 5464 5463 5462 5461 5460 5459 5456 5454 5452 5449 5446 5444 5441 5438 5435 5432 5430 5427 5424 5422 5420 5417 5415 5413 5412 5411 5411 5410
5486 5483 5480 5477 5475 5472 5470 5469 5468 5467 5465 5464 5462 5460 5458 5457 5457 5456 5454 5453 5450 5447 5445 5441 5438 5435 5432 5429 5426 5424 5422 5420 5417 5415 5413 5410 5408 5406 5405 5403 5402 5402 5401
5481 5478 5475 5472 5469 5466 5464 5461 5462 5460 5460 5459 5457 5454 5453 5452 5451 5449 5447 5445 5443 5440 5436 5432 5428 5425 5422 5419 5416 5414 5411 5409 5407 5405 5403 5401 5399 5397 5396 5395 5393 5392 5392
5478 5475 5471 5468 5464 5461 5458 5456 5454 5452 5451 5451 5449 5448 5446 5444 5443 5441 5439 5436 5433 5430 5426 5422 5419 5416 5412 5409 5406 5404 5402 5399 5397 5395 5393 5392 5390 5388 5387 5386 5385 5384 5383
5472 5470 5467 5463 5460 5456 5453 5451 5448 5445 5442 5440 5440 5439 5438 5436 5434 5432 5429 5426 5422 5419 5416 5413 5410 5407 5403 5400 5397 5395 5392 5390 5388 5386 5384 5383 5381 5380 5379 5378 5377 5375 5375
5465 5463 5460 5457 5453 5450 5447 5443 5441 5438 5436 5433 5430 5429 5429 5427 5424 5422 5419 5415 5412 5409 5406 5403 5400 5397 5394 5391 5388 5385 5383 5380 5378 5376 5375 5374 5373 5371 5370 5369 5368 5368 5366
5458 5457 5454 5449 5446 5442 5439 5436 5433 5431 5428 5426 5423 5421 5419 5416 5413 5411 5408 5405 5402 5399 5396 5394 5391 5388 5384 5381 5378 5376 5373 5371 5368 5366 5365 5364 5363 5363 5362 5361 5360 5359 5358
5451 5448 5446 5442 5439 5436 5433 5430 5427 5424 5421 5419 5416 5414 5412 5408 5406 5402 5399 5396 5393 5390 5388 5385 5382 5379 5375 5372 5369 5367 5364 5361 5359 5357 5356 5354 5354 5354 5353 5353 5352 5352 5350
5442 5440 5437 5434 5432 5429 5425 5422 5419 5416 5413 5410 5408 5405 5404 5399 5396 5393 5391 5388 5385 5382 5379 5376 5373 5370 5367 5364 5361 5358 5355 5353 5350 5348 5347 5346 5345 5345 5344 5344 5344 5343 5342
5434 5431 5429 5426 5423 5421 5418 5414 5411 5408 5405 5402 5399 5396 5393 5390 5387 5385 5382 5379 5377 5374 5371 5368 5365 5362 5359 5356 5353 5349 5347 5345 5343 5340 5338 5337 5336 5335 5335 5335 5335 5334 5334
5425 5423 5421 5418 5414 5412 5409 5406 5403 5400 5396 5393 5390 5388 5385 5382 5379 5377 5374 5371 5368 5366 5363 5360 5357 5354 5351 5348 5345 5342 5339 5337 5335 5333 5331 5329 5327 5326 5325 5325 5325 5325 5325
5417 5415 5412 5409 5406 5403 5400 5397 5394 5391 5389 5386 5383 5380 5377 5374 5371 5368 5365 5362 5359 5357 5355 5352 5349 5346 5343 5340 5337 5334 5332 5329 5327 5325 5323 5321 5320 5318 5317 5316 5316 5316 5316
5408 5406 5403 5400 5398 5395 5392 5389 5386 5383 5381 5378 5376 5373 5370 5367 5363 5360 5357 5354 5351 5349 5346 5344 5341 5338 5335 5331 5328 5326 5324 5322 5320 5318 5316 5314 5312 5311 5309 5309 5308 5308 5308